カタログに戻る

STARLINK-36431

運用中通信VLEO
NORAD 67421·PAYLOAD·🇺🇸 United States

打ち上げ Jan 12, 2026 から Cape Canaveral Space Force Station

Loading…

次のパス (今後24時間)

TLE

最新Source: CelesTrak SupGP

元期: Sep 15, 2026, 03:31 UTC

1 67421C 26005T   26258.14701389 -.00052325  00000+0 -18954-2 0  2584
2 67421  42.9999 248.3555 0001331 267.6053 241.8054 15.27602096    16

AllMySatでSTARLINK-36431をリアルタイム追跡

Download on the App Store